This demonstration page uses our WeatherBlox Daily Observations layout. Learn more.

Left ArrowRight Arrow

Hourly Observations for January 20, 2018

Temp ( °F °C ) Dew Point ( °F °C ) Humidity (%) Winds ( mph kmh ) Pressure ( in mb ) Visibility ( mi km ) Precip ( " mm )
12:53 am 00:53 Clear 35 1.7 23 -5 61 61 SE 8 13 29.86 1011 10 16 0.00 0.00
1:53 am 01:53 Clear 36 2.2 25 -3.9 64 64 SE 10 17 29.84 1011 10 16 0.00 0.00
2:53 am 02:53 Clear 34 1.1 26 -3.3 73 73 SE 7 11 29.84 1010 10 16 0.00 0.00
3:53 am 03:53 Clear 31 -0.6 25 -3.9 79 79 Calm 29.84 1011 10 16 0.00 0.00
4:53 am 04:53 Clear 24 -4.4 19 -7.2 81 81 N 6 9 29.85 1011 10 16 0.00 0.00
5:53 am 05:53 Clear 24 -4.4 17 -8.3 75 75 NE 3 6 29.86 1011 10 16 0.00 0.00
6:53 am 06:53 Clear 22 -5.6 14 -10 71 71 NNE 3 6 29.89 1012 10 16 0.00 0.00
7:53 am 07:53 Sunny 23 -5 15 -9.4 72 72 Calm 29.91 1013 10 16 0.00 0.00
8:53 am 08:53 Sunny 31 -0.6 21 -6.1 67 67 Calm 29.92 1013 10 16 0.00 0.00
9:53 am 09:53 Sunny 41 5 28 -2.2 60 60 Calm 29.92 1013 10 16 0.00 0.00
10:53 am 10:53 Sunny 56 13.3 26 -3.3 32 32 VRB 3 6 29.91 1013 10 16 0.00 0.00
11:53 am 11:53 Sunny 69 20.6 21 -6.1 16 16 WSW 14 22 29.87 1012 10 16 0.00 0.00
12:53 pm 12:53 Sunny 75 23.9 15 -9.4 10 10 W 22 35 29.82 1010 10 16 0.00 0.00
1:53 pm 13:53 Sunny 77 25 16 -8.9 10 10 WSW 21 33 29.78 1009 10 16 0.00 0.00
2:53 pm 14:53 Sunny 77 25 14 -10 9 9 WSW 16 26 29.76 1008 10 16 0.00 0.00
3:53 pm 15:53 Sunny 77 25 16 -8.9 10 10 WSW 13 20 29.75 1008 10 16 0.00 0.00
4:53 pm 16:53 Sunny 76 24.4 16 -8.9 10 10 W 13 20 29.76 1008 10 16 0.00 0.00
5:53 pm 17:53 Sunny 71 21.7 18 -7.8 13 13 WSW 7 11 29.77 1008 10 16 0.00 0.00
6:53 pm 18:53 Clear 65 18.3 18 -7.8 16 16 WSW 5 7 29.79 1009 10 16 0.00 0.00
7:53 pm 19:53 Clear 59 15 18 -7.8 20 20 W 6 9 29.81 1010 10 16 0.00 0.00
8:53 pm 20:53 Clear 51 10.6 18 -7.8 27 27 SE 10 17 29.82 1010 10 16 0.00 0.00
9:53 pm 21:53 Clear 50 10 23 -5 35 35 SE 10 17 29.80 1009 10 16 0.00 0.00
10:53 pm 22:53 Clear 47 8.3 28 -2.2 48 48 ESE 8 13 29.76 1008 10 16 0.00 0.00
11:53 pm 23:53 Clear 46 7.8 30 -1.1 54 54 ESE 10 17 29.74 1007 10 16 0.00 0.00

Powered by AerisWeather